Wind_Speed
36 36 36 36 36 36 37 39 41 44 46 47 47 48 49 50 53 53 50 47 46 44 42 41 40 38 34 31 30 32 34 38 40 40 38 37 37 39 40 41 42 43 43 43 41 40 40 41 42 42 43 45 45 46 46 45 45 43 41 41 40 39 39 39 40 40 38 37 39 39 37 38 40 38 39 41 42 42 43 43 44 45 44 42 39
36 37 39 40 40 40 39 39 40 41 43 45 46 46 47 46 46 48 48 48 49 48 45 43 42 40 38 35 32 32 33 36 38 38 39 38 39 40 40 40 40 40 41 42 40 39 39 40 41 42 43 45 46 46 47 47 46 45 43 43 42 41 39 39 40 41 40 38 38 38 37 38 39 38 40 42 42 43 43 42 43 43 43 41 39
34 35 36 37 39 41 41 41 41 41 41 43 44 46 47 46 45 46 48 48 49 51 49 46 44 42 40 37 35 33 33 34 36 37 38 38 38 38 38 38 39 39 41 42 40 38 39 39 40 41 43 45 46 47 48 48 47 46 45 45 44 42 40 40 40 41 41 40 38 37 37 38 39 38 40 42 43 44 44 43 42 42 42 41 39
33 34 34 35 35 36 39 40 41 42 42 43 44 45 47 48 46 46 48 48 48 50 51 50 47 43 41 39 37 36 34 33 35 36 37 36 36 35 35 36 38 39 41 41 40 39 40 40 40 41 42 44 45 47 48 48 48 47 47 46 45 42 41 41 40 40 42 41 39 38 37 37 38 39 40 41 43 44 44 44 43 42 42 41 40
33 34 35 36 36 36 36 38 39 42 42 43 44 45 46 48 48 46 47 47 47 46 48 50 48 44 41 39 38 38 37 35 34 35 36 36 35 35 34 36 38 39 40 41 41 40 40 40 40 41 42 42 44 45 46 48 48 48 48 47 45 43 42 42 41 41 41 41 39 38 37 37 38 39 39 41 43 44 44 44 44 43 42 41 40
35 35 35 36 36 36 37 38 40 42 42 43 44 45 45 47 47 46 45 46 46 44 44 46 47 44 40 39 39 39 38 37 36 35 36 37 37 37 36 35 37 39 41 41 41 42 41 41 41 41 40 41 41 43 44 46 47 48 48 47 44 43 42 42 41 41 40 40 39 38 38 38 39 39 38 40 43 44 44 45 44 43 42 42 41
36 36 35 34 35 36 37 38 40 41 42 43 43 43 44 44 44 43 43 43 42 41 41 42 43 43 39 38 39 39 38 38 38 36 36 36 37 37 36 36 37 38 40 41 42 42 42 42 42 40 39 39 39 40 42 44 45 46 46 44 42 41 41 41 40 39 38 38 38 38 38 38 39 39 38 40 42 42 44 46 45 43 42 43 42
37 36 35 35 35 37 38 39 40 40 41 41 41 42 41 41 41 41 40 40 38 37 38 38 38 39 39 37 38 39 39 39 39 37 36 36 36 36 36 37 37 37 39 40 41 42 42 43 42 39 38 38 38 39 41 43 44 44 42 40 39 39 40 39 38 37 37 37 37 37 38 38 38 38 39 41 42 41 42 45 46 44 43 43 42
38 37 37 36 36 38 40 41 42 41 41 41 39 39 37 37 40 40 37 37 36 34 34 36 36 37 37 36 35 37 38 39 39 38 36 36 35 34 34 35 37 37 38 39 41 41 42 43 41 39 38 37 37 38 40 41 42 41 38 37 36 37 37 37 36 35 35 36 36 36 38 38 37 38 40 41 42 42 42 44 45 44 44 43 40
38 37 37 37 37 39 40 42 43 42 41 40 38 36 34 35 38 37 35 35 34 32 32 34 36 36 37 35 34 35 36 36 36 36 36 36 35 34 33 33 35 36 37 38 39 40 41 42 41 39 39 37 37 38 39 39 39 37 35 34 34 34 34 34 34 34 35 35 35 36 37 37 37 38 40 41 42 43 42 43 44 43 43 44 39
38 37 37 37 38 40 41 43 43 42 40 39 37 34 33 35 36 34 33 33 33 31 31 33 34 34 35 35 33 32 34 34 33 33 34 34 35 34 34 32 32 34 36 38 39 41 43 42 40 40 39 36 36 37 38 37 37 35 33 32 32 31 31 32 32 33 34 35 35 35 36 37 37 38 40 42 43 43 42 42 43 43 43 44 39
38 38 37 38 39 40 41 42 42 40 39 37 35 33 33 34 34 31 31 32 32 31 30 32 33 31 31 33 32 30 31 33 32 32 32 33 33 34 33 32 30 32 35 38 40 43 45 43 41 40 37 34 34 35 36 36 34 33 31 30 29 28 28 30 31 33 34 34 34 34 36 38 38 39 40 42 43 42 41 41 42 42 42 42 39
38 38 37 38 39 40 40 40 40 38 37 34 32 32 32 33 31 29 28 30 32 32 30 29 30 30 30 32 32 30 31 32 32 31 32 32 33 33 32 30 30 31 33 35 38 40 42 42 40 37 34 32 32 33 34 34 32 30 29 28 27 26 26 27 29 32 33 34 34 34 35 38 39 39 39 41 42 42 41 40 39 40 40 39 37
36 38 38 38 39 39 39 38 38 37 35 33 31 30 30 30 29 28 28 29 30 31 30 27 27 28 31 32 32 31 31 31 31 31 32 33 33 33 31 28 28 29 29 30 33 36 38 39 38 34 31 30 31 31 31 31 29 28 27 25 24 24 25 26 28 30 31 33 34 35 35 37 40 40 39 40 41 41 41 40 39 39 39 37 35
36 37 39 39 39 39 37 36 35 35 34 32 30 29 28 28 28 27 28 28 29 29 30 28 25 26 30 33 33 32 30 29 29 31 32 33 32 32 30 26 26 27 26 26 29 31 34 37 35 31 29 28 29 29 29 28 26 26 24 23 22 23 23 24 27 29 30 32 33 35 36 37 39 40 39 39 39 39 40 40 38 38 39 37 36
37 38 39 39 39 38 36 35 34 34 33 31 29 28 28 28 27 27 28 29 29 29 30 29 27 25 27 32 34 32 29 28 28 30 32 32 31 29 27 25 24 23 24 24 25 28 33 34 32 28 26 26 26 26 25 24 24 23 21 21 21 21 21 24 27 28 30 31 32 34 35 36 38 38 38 38 38 39 39 38 36 37 39 38 37
38 38 38 39 39 37 35 34 33 32 31 30 28 28 29 28 27 28 29 30 31 31 31 30 29 26 25 29 33 32 29 28 28 29 31 31 28 26 24 23 20 20 21 22 24 29 32 32 29 26 24 23 23 23 22 22 22 20 19 20 20 19 20 23 26 27 28 30 31 32 34 35 36 36 35 36 36 38 39 37 35 37 39 39 39
38 37 38 39 39 36 33 33 32 31 30 29 28 28 29 28 28 28 29 30 31 31 32 31 30 27 25 25 28 29 28 27 27 28 28 27 25 22 21 20 18 17 19 22 25 30 32 30 28 25 22 21 21 20 20 21 19 18 19 19 18 18 20 22 24 25 26 28 29 30 32 33 33 33 33 34 35 36 37 37 36 37 38 39 40
35 34 36 39 40 36 33 32 32 31 30 28 26 27 28 28 28 28 30 31 31 31 32 31 30 28 26 23 22 24 24 24 24 24 23 22 20 19 18 18 16 15 18 21 26 30 31 30 27 23 20 20 20 19 19 19 18 18 18 18 18 18 19 21 22 23 24 25 27 28 29 30 31 31 32 32 34 35 36 36 35 36 37 37 38
30 31 34 38 39 34 31 32 31 30 30 28 25 26 27 28 28 28 30 32 32 31 31 30 29 29 26 23 21 20 20 20 21 21 20 19 17 15 15 15 13 15 18 21 26 30 31 30 25 21 20 19 18 17 17 17 18 17 17 18 17 17 18 20 20 21 22 23 25 26 26 27 28 29 30 31 32 33 34 34 34 35 36 36 37
26 29 33 36 35 32 29 30 31 31 30 27 26 26 27 28 28 28 30 32 32 31 29 28 28 27 25 24 21 17 18 18 19 20 18 16 15 15 13 12 11 14 17 20 25 29 29 27 24 21 20 18 16 16 16 17 17 17 17 18 17 16 18 19 19 20 21 22 23 24 24 25 26 28 29 30 31 31 31 31 32 32 33 34 36
27 28 30 32 32 30 28 29 30 29 27 26 26 26 26 28 29 29 30 32 32 30 27 26 26 24 24 24 18 15 17 17 18 19 17 15 15 15 14 13 12 13 16 19 23 27 27 25 23 21 19 17 15 15 16 17 17 16 16 17 16 16 17 17 18 19 20 21 22 23 23 24 25 26 27 28 29 29 29 29 30 30 31 32 34
25 26 28 30 30 27 26 27 27 26 25 24 24 24 26 28 29 29 30 32 31 27 24 24 24 22 22 19 14 15 16 16 17 18 17 15 16 16 15 16 15 15 17 19 22 26 27 25 23 20 17 15 15 16 17 17 17 16 16 15 15 16 16 16 17 19 19 20 21 21 22 23 23 25 26 26 27 26 26 27 28 28 30 30 32
22 24 27 28 26 24 23 24 24 22 21 20 21 24 27 28 28 28 29 30 27 23 21 22 21 20 17 12 12 15 16 15 15 16 16 15 15 15 15 16 18 18 19 21 23 26 26 25 22 19 16 14 15 16 17 16 16 15 14 14 15 15 15 16 17 18 18 19 20 20 21 22 23 24 25 25 25 25 25 26 26 26 28 28 30
22 25 25 23 22 22 21 21 21 19 18 17 21 26 28 28 28 27 27 25 20 16 16 18 18 16 11 11 13 15 16 15 16 16 15 11 11 11 13 14 17 20 20 20 23 26 26 24 22 18 15 14 16 16 16 15 15 14 13 14 14 14 15 16 17 17 18 18 19 19 20 21 22 23 24 25 26 25 24 25 25 25 25 26 28
22 22 19 17 19 19 19 19 18 17 17 19 22 26 27 27 27 26 23 20 15 11 11 13 14 12 10 13 15 16 17 17 16 15 14 11 10 11 13 13 14 19 21 20 21 25 26 26 23 18 15 16 17 16 15 15 14 13 13 13 13 13 14 15 16 17 17 17 18 18 19 20 21 22 24 25 27 27 26 25 24 23 23 24 26
21 18 16 16 17 17 17 18 18 18 19 21 23 25 24 25 26 25 20 15 12 10 9 9 9 9 11 14 16 15 16 17 16 15 15 14 12 12 12 11 10 13 18 20 21 23 25 25 23 18 15 17 17 15 15 14 13 13 12 11 12 13 14 14 15 16 16 17 17 18 18 20 21 23 24 25 27 27 27 26 24 23 22 23 25
21 18 16 17 16 15 16 17 18 19 21 22 24 23 22 23 24 23 19 14 10 8 7 6 7 8 11 15 16 16 17 17 16 17 18 17 13 11 11 11 10 10 13 18 19 20 22 23 20 18 17 17 16 15 15 14 13 12 11 11 11 12 13 14 14 15 15 16 17 17 18 20 21 22 24 25 27 27 27 27 26 25 23 24 25
22 20 17 15 14 14 15 16 18 20 21 22 22 22 20 21 21 20 16 13 11 9 6 5 6 7 10 14 16 16 18 18 18 18 17 15 13 11 12 12 12 11 11 14 15 16 18 19 19 19 17 16 16 15 15 13 12 11 10 10 11 12 12 13 14 14 14 15 16 16 18 19 20 21 23 25 27 27 27 27 27 27 26 25 25
22 18 14 13 13 14 15 16 18 20 20 20 21 20 18 18 20 19 14 11 11 13 10 6 5 7 10 14 16 16 18 20 20 17 13 12 12 12 12 14 13 10 9 11 13 14 16 18 20 19 17 16 16 15 13 12 11 10 10 10 11 11 12 13 13 13 14 15 15 16 17 18 19 20 22 24 26 26 27 28 29 29 28 26 26
19 13 10 12 14 15 16 17 17 17 18 18 19 18 17 15 16 17 14 10 10 12 12 11 10 11 10 12 17 18 18 18 19 17 15 15 15 13 14 15 13 10 8 8 12 14 16 18 20 18 17 16 15 14 12 11 10 9 10 10 10 11 12 12 12 13 14 14 15 15 16 17 18 20 21 23 24 25 26 27 28 29 29 28 28
16 11 10 13 15 15 16 17 15 14 15 16 16 17 17 14 12 12 12 10 8 8 9 12 14 15 14 12 15 21 22 21 20 20 19 18 18 16 15 14 10 8 7 8 11 14 16 18 19 18 17 16 14 13 11 10 9 9 9 10 10 10 11 11 11 12 13 14 15 16 16 17 18 19 21 22 23 23 24 25 26 27 28 29 29
15 12 12 14 15 15 16 17 16 13 13 14 15 16 15 14 12 11 10 9 9 8 9 13 17 19 18 14 13 19 25 26 25 24 22 21 19 17 15 11 9 8 8 8 11 14 17 19 19 18 17 15 13 11 10 9 9 9 9 9 10 10 10 10 11 12 13 14 15 15 16 17 18 19 20 21 22 23 23 24 24 25 26 27 27
15 13 13 13 14 14 17 18 17 14 12 12 13 14 14 13 14 13 9 8 9 10 12 16 19 20 18 14 12 16 21 24 24 23 21 19 17 15 13 11 11 10 9 10 12 14 16 19 19 17 15 13 12 11 10 9 9 9 8 8 9 9 9 10 10 11 13 14 14 15 16 16 17 18 19 21 22 23 23 23 23 23 24 25 25
15 15 13 12 12 15 17 18 16 14 12 12 12 13 13 13 13 12 10 9 10 12 16 19 19 18 16 12 11 15 17 18 19 19 17 15 14 12 11 11 11 11 11 12 15 15 16 17 17 16 15 13 12 11 10 9 9 8 8 8 8 8 8 9 10 11 12 13 14 15 15 16 17 18 19 20 21 22 22 23 23 23 23 23 24
15 15 12 9 11 13 15 15 14 14 14 13 13 13 14 13 13 12 11 11 11 13 17 20 18 13 10 8 10 13 15 15 16 16 15 14 12 10 9 8 9 9 10 13 16 16 17 17 17 16 15 13 12 11 10 9 9 8 8 7 7 7 8 9 9 11 12 13 14 15 15 16 17 18 19 20 21 22 23 23 23 23 23 23 23
14 14 10 7 9 13 14 13 14 15 15 13 12 13 14 14 15 14 12 12 13 15 18 21 19 13 4 4 7 8 10 12 14 14 14 14 12 10 8 8 8 9 12 16 16 16 16 16 16 15 14 13 12 11 10 9 8 8 7 7 7 7 7 8 9 10 12 13 14 15 16 16 17 18 19 20 21 22 23 24 23 24 24 23 23
13 13 10 7 8 11 13 12 14 16 16 13 11 12 13 14 14 14 13 13 14 16 19 21 21 18 9 3 6 6 6 7 8 10 11 12 13 11 9 9 11 13 16 17 17 16 16 15 15 14 13 12 12 11 10 9 8 7 7 6 6 6 7 8 9 10 12 13 14 15 16 17 18 18 19 20 20 21 23 23 23 23 23 23 23
12 13 12 10 9 10 11 12 13 16 17 14 10 10 11 12 12 12 12 13 13 16 19 21 22 21 17 8 1 5 6 6 7 8 8 7 9 10 11 11 13 15 17 18 18 18 17 16 15 14 13 13 12 11 10 10 8 7 6 6 6 6 7 8 9 10 12 13 14 16 17 17 18 19 19 20 21 21 22 23 23 23 23 23 23
12 12 12 12 10 9 10 11 13 15 16 14 10 8 9 9 10 10 11 11 12 13 16 19 20 20 20 17 10 3 2 4 6 8 8 7 6 7 9 12 13 14 16 19 20 19 18 17 15 14 14 13 12 11 10 9 8 7 6 6 6 6 7 8 9 10 12 14 15 16 17 18 19 19 20 21 21 22 22 22 23 23 23 24 23
12 11 11 12 11 9 9 10 12 13 14 12 9 8 7 7 7 8 9 9 9 10 12 16 18 18 18 17 15 11 6 3 1 4 7 9 8 6 8 11 14 15 16 19 20 20 18 17 15 15 15 14 12 11 10 9 8 7 7 6 6 6 7 8 9 11 12 14 15 17 18 19 20 20 21 21 22 22 22 23 23 23 23 24 23
11 11 11 11 11 10 9 9 11 13 12 10 9 9 8 6 5 5 6 7 8 9 10 13 16 17 17 17 17 16 12 7 2 2 5 7 9 9 9 12 15 15 16 18 19 19 17 16 15 15 14 14 13 12 11 10 9 8 7 7 7 7 7 9 10 11 13 14 16 18 19 20 21 22 22 22 22 23 23 23 23 23 23 23 23
12 12 12 10 10 10 9 8 10 11 10 9 10 9 7 5 4 4 5 6 8 9 9 10 13 15 17 18 19 18 17 12 5 1 3 4 5 8 10 12 15 16 16 17 18 17 16 16 15 15 15 14 13 13 11 10 9 9 8 7 7 8 8 10 11 12 13 15 16 18 20 22 22 23 23 24 23 23 23 23 23 24 23 23 23
11 12 12 10 9 9 8 7 9 9 8 8 9 9 6 5 3 3 4 6 8 9 9 9 10 12 15 18 19 19 18 15 9 2 2 2 3 7 10 12 14 16 17 18 17 16 16 15 14 14 14 13 11 11 10 10 10 10 9 8 8 9 10 11 12 13 15 16 17 19 21 23 24 25 25 25 25 24 24 24 24 24 24 23 23
10 11 10 8 6 6 6 7 7 6 6 7 8 8 5 2 3 5 7 7 8 10 10 9 9 10 13 16 19 19 18 15 11 5 4 4 4 5 9 12 15 17 18 18 17 16 15 14 13 11 11 10 9 10 11 11 11 10 10 10 10 10 11 12 13 15 16 17 19 21 22 24 25 26 26 26 26 25 25 25 24 24 24 24 23
8 8 6 3 2 3 4 4 4 4 5 6 7 7 4 2 4 7 9 9 10 10 10 10 10 10 12 15 18 20 19 15 11 7 3 4 5 6 9 12 15 18 18 18 17 16 14 12 11 10 9 9 10 11 11 11 11 11 11 11 11 12 13 14 15 16 18 19 20 22 23 24 26 26 27 27 27 26 26 26 25 25 24 24 24
7 5 3 2 1 1 1 2 4 5 4 3 5 6 5 3 5 8 10 11 10 10 11 13 12 11 11 13 16 19 19 16 11 7 3 2 5 6 9 12 14 17 17 16 15 14 12 10 9 9 9 9 10 10 10 10 11 11 11 12 12 13 14 15 16 17 19 20 22 23 24 25 26 26 26 27 27 27 27 27 26 26 25 25 25
7 5 3 2 2 3 1 2 3 3 3 3 4 6 5 4 6 10 13 12 9 9 11 14 15 13 12 12 15 19 19 16 11 7 3 3 5 7 9 12 14 16 16 15 13 12 10 8 8 8 8 9 10 9 9 9 10 11 12 13 14 15 15 17 18 19 20 22 23 24 25 26 26 26 26 26 26 27 27 27 27 26 26 25 25
7 4 2 0 2 3 1 2 1 1 3 3 3 4 3 3 5 10 13 12 10 9 9 12 14 14 12 12 16 19 18 15 11 7 3 6 7 9 11 13 14 14 14 12 10 9 7 7 7 7 8 8 8 8 8 9 10 11 12 13 15 16 17 18 19 20 22 23 24 25 25 26 26 26 26 26 26 26 27 27 27 26 26 26 25
7 4 2 1 1 2 0 1 0 1 1 1 1 2 1 4 8 10 10 10 10 10 10 9 11 13 12 12 15 18 17 13 10 5 5 9 11 11 12 13 13 12 11 9 7 6 6 5 5 5 5 5 6 6 7 9 10 11 13 14 15 16 18 19 20 22 23 23 24 25 25 25 26 26 26 26 27 26 26 27 27 27 26 26 25
6 5 4 3 2 1 1 1 0 1 1 1 1 0 2 7 11 12 11 11 12 12 11 9 10 11 11 11 14 17 15 12 8 4 7 12 14 14 14 13 11 10 9 7 5 4 3 3 3 3 4 4 5 6 7 9 10 12 13 14 16 17 18 19 20 21 22 23 23 24 24 25 25 26 26 26 27 27 26 26 26 26 26 26 26
Wind_Direction
303 302 300 299 298 297 297 296 293 291 290 288 284 279 274 272 271 271 270 267 267 267 264 265 269 269 268 269 269 270 271 270 263 257 254 252 251 251 251 251 250 249 249 249 250 253 255 256 254 252 253 254 255 257 259 261 263 265 267 269 271 273 275 278 281 284 287 288 289 291 294 296 297 301 303 302 303 305 307 308 307 305 302 297 294
303 302 301 299 299 299 299 298 297 294 292 290 288 285 281 277 272 269 266 262 263 265 265 263 265 267 267 267 269 269 269 271 269 264 260 257 254 253 251 249 247 247 248 248 249 252 255 255 255 253 253 254 256 257 259 261 263 265 267 269 270 272 275 279 281 284 287 288 289 292 294 295 297 300 303 303 304 306 307 308 308 305 301 297 294
301 299 297 295 295 296 297 297 296 294 293 290 288 285 283 281 277 272 268 263 260 261 262 261 260 262 265 265 267 268 268 269 270 268 264 259 257 256 253 249 246 246 247 247 248 251 254 254 255 254 254 255 256 258 260 262 264 266 268 269 270 273 275 278 281 284 287 288 290 293 294 296 298 300 303 304 305 306 308 309 308 304 300 295 292
301 300 299 299 298 297 297 297 296 295 292 290 288 286 283 282 280 276 272 269 265 261 260 260 258 258 260 262 263 264 266 267 268 270 269 262 256 255 253 249 247 249 250 249 248 251 254 254 254 255 256 258 259 261 262 264 265 267 269 270 271 273 276 278 282 284 286 288 291 293 295 297 299 302 305 305 305 306 308 309 308 304 299 294 292
305 305 305 305 303 302 300 298 296 295 293 290 288 286 284 282 282 280 276 273 271 266 262 260 260 258 256 258 260 260 262 264 265 268 270 266 258 254 252 250 247 248 251 251 250 252 254 254 254 255 257 259 261 264 266 267 269 269 270 272 273 274 277 279 282 284 286 289 291 293 297 298 300 303 306 306 305 306 308 308 307 305 300 295 292
309 308 306 305 304 304 303 302 300 297 294 291 288 286 285 283 282 282 279 276 274 271 266 262 261 261 257 256 258 258 259 261 262 264 266 266 261 256 253 252 250 249 250 252 252 254 256 256 256 257 259 261 264 266 269 270 272 272 271 271 272 273 277 280 282 284 286 289 291 294 297 299 301 304 306 306 306 307 308 308 307 306 302 297 293
310 308 308 308 306 306 305 304 303 301 296 292 289 288 287 286 285 283 280 277 275 273 271 265 263 263 260 255 256 258 258 257 259 260 262 264 262 258 255 254 254 253 251 252 254 256 258 258 259 260 261 263 266 268 270 271 271 272 271 271 272 273 277 279 281 284 287 289 292 295 297 299 302 305 306 306 307 309 309 308 309 308 303 299 297
312 312 312 311 309 309 308 307 306 303 299 295 292 291 290 290 290 287 280 277 276 274 271 266 263 264 262 257 255 257 257 256 256 257 259 261 261 260 257 254 254 254 252 252 253 255 257 258 258 260 262 264 266 267 269 270 270 271 272 273 273 275 277 279 281 284 287 289 292 295 297 299 302 305 306 307 309 310 309 308 310 309 305 301 300
316 315 313 312 311 311 311 310 309 306 303 300 297 296 295 293 293 288 279 277 277 275 271 267 265 265 263 259 256 255 255 254 254 254 255 258 259 260 259 256 255 254 252 252 252 253 256 257 257 259 261 263 265 266 267 269 271 272 273 274 274 275 277 279 282 286 288 290 293 295 296 298 303 306 307 309 310 310 310 310 310 309 305 302 301
315 312 311 311 311 311 310 309 308 307 305 303 301 299 297 295 293 287 279 277 278 277 271 268 268 268 266 263 259 257 254 252 252 252 252 254 255 257 259 258 256 253 251 252 252 253 255 256 256 257 259 261 263 265 267 269 271 272 272 272 274 276 278 281 284 287 289 291 292 294 296 300 305 308 309 310 311 311 312 311 309 308 306 303 302
312 311 312 312 312 311 309 307 306 305 305 304 302 300 297 296 295 288 281 279 280 279 272 266 266 267 266 266 264 260 257 253 251 250 250 251 254 256 258 259 257 255 251 251 252 252 253 253 254 255 257 259 262 265 267 268 269 270 270 272 274 277 280 283 286 288 289 290 292 295 299 302 307 310 312 312 311 311 313 312 310 309 308 306 305
311 312 312 312 311 309 307 306 306 306 306 304 303 302 301 300 298 291 284 280 280 280 275 269 267 263 262 266 267 263 258 256 254 252 251 251 253 256 258 260 261 260 255 250 249 251 251 252 253 254 255 258 260 263 265 266 267 268 270 272 274 276 279 282 285 287 289 292 295 299 303 305 310 313 313 312 311 312 314 312 311 309 307 308 308
309 309 310 310 309 308 307 307 308 308 307 305 305 306 305 304 301 296 290 284 281 280 279 276 271 264 260 265 267 262 255 253 254 256 255 252 252 254 257 260 264 264 257 248 245 248 250 251 252 253 253 255 258 261 263 264 266 268 270 273 274 276 279 283 287 290 293 296 299 303 306 308 311 313 313 313 311 313 314 311 309 307 305 307 308
306 306 307 308 308 308 308 308 307 307 306 305 307 308 307 306 305 301 296 291 286 284 282 281 277 268 260 261 265 262 252 246 251 258 257 254 254 255 255 258 262 263 258 248 244 246 249 250 251 250 250 252 255 259 261 263 266 268 269 272 273 276 280 284 288 290 293 298 301 305 309 310 312 313 313 312 311 312 312 310 309 309 308 309 311
303 303 305 307 308 309 308 307 306 306 306 306 307 308 308 308 306 303 300 298 295 290 285 282 282 276 263 256 260 261 251 243 250 257 256 254 254 253 253 256 260 262 259 250 244 244 246 248 247 245 246 250 254 258 260 263 266 267 269 272 272 276 281 284 287 290 294 298 302 307 311 312 312 312 312 311 311 312 311 311 312 312 312 313 316
301 302 304 306 307 307 307 306 305 306 307 307 306 307 310 310 306 304 305 305 302 298 290 283 283 283 269 257 257 259 252 244 248 254 255 253 251 250 250 253 257 261 260 251 242 241 243 244 242 241 244 248 253 258 261 264 265 266 268 270 271 276 283 285 287 291 295 300 303 308 311 311 310 311 312 312 313 312 310 312 315 315 315 316 319
300 300 302 305 305 306 307 307 305 304 305 306 305 307 312 312 309 308 308 308 306 301 295 287 282 283 276 260 255 257 255 247 246 251 252 249 246 244 246 250 254 257 257 249 240 239 241 239 237 238 242 248 254 260 263 264 264 264 265 267 270 277 281 283 287 292 296 300 304 307 309 308 309 311 312 312 312 310 311 314 317 316 316 317 317
298 297 301 304 304 304 308 308 306 304 304 303 303 307 311 311 310 310 309 308 305 301 298 293 284 283 282 268 258 260 260 251 245 249 250 245 243 241 241 248 252 250 247 243 238 238 237 234 233 236 240 247 254 260 262 262 263 263 263 265 269 274 277 281 287 291 295 299 303 306 307 308 310 312 312 313 312 311 313 316 317 316 315 314 313
295 296 300 302 301 304 308 309 308 305 301 301 302 303 307 308 308 309 309 307 305 301 299 295 286 281 282 277 266 261 256 246 242 246 245 240 241 241 240 247 249 239 236 238 238 236 233 231 231 233 239 247 254 259 262 263 263 263 262 263 267 272 277 283 287 291 296 300 304 306 308 310 312 315 316 316 315 314 314 315 315 313 311 311 311
295 296 297 296 299 303 307 310 310 305 300 300 301 300 303 305 306 308 307 305 303 301 298 293 287 281 282 285 279 259 242 235 237 241 239 235 238 240 240 245 243 228 227 236 237 233 230 230 230 232 240 248 255 260 261 262 263 262 262 263 268 274 280 285 289 293 297 301 304 307 310 312 315 317 319 318 316 315 313 311 311 309 308 311 312
290 290 289 292 299 304 306 309 309 304 299 300 299 299 302 305 306 305 303 300 299 299 296 290 286 281 280 285 280 251 228 227 233 238 237 233 237 239 233 234 234 223 222 231 234 231 229 231 230 232 241 248 254 258 260 260 261 260 260 265 271 277 282 286 290 295 299 303 307 310 312 316 319 320 321 319 316 314 312 309 308 308 308 311 312
286 287 288 295 302 305 307 309 306 301 299 298 298 299 301 304 305 304 301 298 297 298 295 289 284 280 279 280 268 231 221 229 233 238 240 234 236 238 228 220 226 224 221 227 231 229 229 231 231 233 241 248 253 256 257 257 257 257 260 267 274 278 282 287 292 297 303 307 310 314 317 320 321 320 319 319 317 315 313 310 309 308 309 311 312
291 291 293 299 304 307 309 307 304 300 298 298 300 302 303 304 304 304 302 300 298 297 295 289 285 283 282 275 245 216 226 236 234 238 242 235 236 239 230 220 220 223 225 228 230 229 228 230 232 235 241 246 250 252 251 252 254 257 262 269 275 281 286 292 298 302 307 310 313 317 320 320 319 318 319 319 319 318 316 312 310 310 309 311 315
291 292 295 301 308 311 309 307 304 301 299 301 305 306 305 303 304 307 308 304 299 296 293 290 287 284 278 254 218 217 233 239 234 236 238 233 232 238 237 228 221 222 228 232 232 229 228 229 232 235 239 244 247 248 248 250 254 258 264 270 277 285 291 296 302 305 308 312 316 319 319 320 320 320 320 321 323 324 321 316 314 313 312 313 319
290 293 298 304 307 309 309 308 305 302 301 302 304 305 305 303 307 316 317 307 301 298 292 291 291 284 261 221 213 224 232 235 233 233 236 238 236 242 252 247 232 224 228 234 233 229 228 230 230 232 238 244 247 247 247 249 253 257 264 271 278 288 294 297 302 306 308 313 317 319 320 321 323 324 325 327 329 332 331 325 320 318 316 315 321
298 301 304 307 307 308 309 307 305 302 300 298 300 304 306 304 311 325 325 310 304 306 297 293 294 282 247 222 224 225 224 229 230 229 234 241 241 249 263 264 245 230 225 229 230 228 228 230 228 225 233 241 244 245 244 246 250 255 262 272 280 287 293 297 302 305 309 315 318 320 321 323 327 331 333 334 335 337 338 333 326 323 320 318 323
312 313 312 310 309 310 308 306 306 304 299 299 302 305 308 311 320 332 332 314 302 304 304 305 298 272 237 228 230 225 223 227 227 226 232 231 231 248 266 271 264 244 229 228 230 228 229 232 228 222 227 237 241 241 241 242 247 252 261 272 281 287 292 297 301 305 311 317 318 319 324 328 334 338 339 339 339 339 341 339 333 330 327 325 328
318 316 311 309 308 308 308 309 310 307 304 306 308 309 314 324 333 336 333 325 314 305 306 312 300 267 237 231 231 229 230 231 228 230 234 229 229 251 266 270 284 276 242 232 233 231 230 232 227 221 226 233 236 236 237 239 243 250 260 271 279 286 291 296 302 307 313 316 317 322 330 335 339 341 342 342 341 341 343 343 341 339 337 334 334
314 312 309 308 306 307 309 310 310 311 311 311 311 311 316 327 336 338 335 334 335 331 323 302 284 266 242 234 234 233 232 231 232 237 236 229 233 252 258 261 280 289 257 234 230 229 229 227 222 220 224 229 232 232 233 236 241 249 261 271 277 286 291 296 302 308 313 316 320 328 335 338 342 344 344 343 343 343 344 345 345 346 345 342 341
316 317 312 305 303 306 309 309 308 312 314 312 311 311 313 319 332 341 344 337 331 335 346 352 322 289 254 236 234 235 231 228 232 240 242 237 242 253 257 260 273 287 269 236 222 219 220 220 219 220 222 225 228 229 230 233 240 249 261 270 279 286 291 296 303 309 315 319 323 332 337 340 344 347 346 345 344 345 347 347 347 348 348 347 348
321 327 317 304 305 310 311 310 310 312 313 311 309 309 310 316 329 340 342 335 325 331 346 353 342 325 295 250 232 229 227 225 229 235 240 243 246 250 257 264 273 283 275 240 218 215 216 215 216 218 219 222 225 226 226 230 238 249 261 270 279 287 291 297 306 311 317 321 326 333 339 342 347 348 347 346 346 346 349 349 348 348 348 348 351
320 327 314 304 310 317 314 312 316 317 313 310 308 309 311 316 330 338 335 327 324 330 336 333 327 321 314 287 243 226 222 222 227 233 237 241 244 248 256 267 278 283 271 237 218 216 214 212 214 216 218 220 221 219 221 228 237 249 262 270 278 286 290 299 309 314 319 325 330 335 340 344 350 351 349 348 347 347 350 351 349 349 350 349 351
313 314 306 304 313 318 313 312 317 317 311 307 307 310 313 318 331 341 337 327 328 330 322 320 319 314 309 298 261 232 223 221 227 234 236 237 240 245 252 261 270 275 264 236 221 217 212 209 212 216 218 218 216 214 217 227 237 249 260 268 277 285 292 302 312 318 324 329 332 336 341 346 352 354 351 349 347 347 349 351 351 352 352 351 352
306 303 302 306 311 311 309 311 314 313 309 307 310 316 319 321 331 341 341 336 337 330 317 316 317 311 301 286 256 237 228 223 224 229 231 232 235 241 248 251 255 262 253 224 212 212 210 209 212 216 216 214 211 210 215 224 235 248 259 267 276 286 295 306 316 322 327 330 333 338 342 347 352 354 352 350 349 349 349 350 352 353 355 355 356
295 296 300 305 305 305 309 314 314 313 312 313 318 324 325 326 337 348 351 348 344 333 326 326 323 310 294 272 237 228 226 221 218 219 221 224 230 239 247 247 249 254 243 213 198 198 204 208 211 213 211 208 206 207 213 224 234 245 256 266 277 289 300 310 320 326 328 331 336 341 343 347 351 354 353 351 350 350 350 351 352 354 356 358 360
278 286 294 300 299 304 312 317 316 316 316 317 325 333 333 336 349 0 1 355 349 344 344 348 344 322 291 250 218 217 218 212 209 210 212 218 226 234 240 245 248 246 225 200 189 190 195 201 207 209 207 205 204 205 212 221 232 243 254 265 277 291 303 313 322 327 329 333 340 343 344 347 351 352 352 352 351 351 351 353 354 356 357 358 360
268 280 290 296 297 304 313 318 318 316 315 318 329 338 339 341 350 359 0 354 350 355 2 7 7 0 338 195 189 203 210 208 211 214 215 217 222 229 238 245 238 217 195 185 184 187 191 197 203 207 206 204 202 204 211 220 230 241 252 265 280 293 306 316 323 328 331 337 342 344 345 349 352 352 351 351 351 350 351 352 354 356 358 358 358
263 276 285 288 291 298 307 317 319 315 313 317 328 336 337 338 344 353 357 352 350 2 12 16 18 23 33 123 168 175 184 200 216 225 227 228 226 228 236 235 219 200 185 179 179 182 187 193 199 201 202 203 201 203 210 218 227 238 251 265 281 294 307 317 323 328 334 339 343 344 345 349 352 352 351 351 350 350 349 350 352 355 357 358 358
256 267 278 287 294 297 304 315 317 313 313 317 323 327 330 332 338 348 353 350 353 7 16 16 19 26 30 30 100 183 186 200 215 222 227 230 226 223 222 217 209 199 187 177 176 180 185 189 193 196 198 200 200 203 210 218 225 237 250 264 280 295 308 317 323 328 335 340 342 342 345 349 351 351 350 350 350 349 348 349 351 352 355 357 358
254 259 270 284 290 291 299 309 311 309 313 318 320 320 322 325 332 343 350 351 356 8 16 14 15 21 24 22 18 16 214 226 231 226 219 212 209 214 213 207 204 203 193 182 178 182 186 188 191 194 195 195 198 203 210 218 226 237 249 263 281 297 307 316 323 329 335 339 340 340 343 346 349 350 350 350 349 348 347 348 349 350 353 356 356
256 257 267 280 284 282 289 301 306 307 312 316 316 314 312 314 325 337 345 351 355 4 11 13 11 12 15 18 20 21 14 350 263 217 211 204 198 197 204 204 205 204 197 188 183 182 186 189 191 193 193 193 197 204 212 219 228 239 250 263 279 295 304 314 323 328 332 337 338 338 340 343 346 349 350 349 347 347 346 347 348 349 350 352 353
259 261 266 274 279 279 280 289 297 301 305 309 306 301 297 298 310 327 336 344 353 2 7 9 8 4 2 6 17 23 20 12 18 165 184 194 193 190 194 202 204 200 193 188 185 184 186 189 191 193 193 193 196 205 215 222 230 240 250 262 277 293 304 312 320 325 329 333 336 336 337 341 343 346 347 347 346 346 346 345 346 347 347 347 347
267 272 273 273 277 278 275 279 290 296 299 301 296 291 286 278 282 306 324 333 348 360 4 5 5 359 352 356 9 20 20 12 4 175 168 170 190 197 197 198 199 194 186 184 184 185 187 191 193 194 194 196 200 209 217 224 233 242 250 262 276 291 303 310 318 322 325 329 332 333 335 338 340 342 344 344 344 345 345 344 344 344 343 343 343
279 289 292 287 281 276 266 267 282 294 302 299 293 291 286 272 275 313 327 328 340 350 351 353 357 352 344 348 0 10 13 10 3 327 221 192 194 204 204 198 192 186 181 181 183 186 190 194 197 198 200 204 209 215 220 227 236 244 252 264 277 289 301 308 314 319 322 325 328 330 332 334 337 339 340 341 342 342 342 343 342 340 340 340 340
302 305 305 299 290 277 260 255 272 293 298 290 290 294 292 286 329 342 332 327 337 342 338 335 342 343 340 341 349 357 4 7 4 342 273 238 218 207 204 196 187 180 179 181 184 188 193 197 199 202 206 209 212 217 223 232 241 249 258 269 279 289 299 306 310 315 319 322 325 327 329 331 334 336 337 337 339 339 340 340 339 338 337 337 337
318 317 318 323 311 269 240 237 259 278 278 278 285 289 287 311 348 339 332 335 342 342 339 336 333 337 343 344 343 350 1 8 7 357 310 241 221 204 196 191 184 180 180 182 186 191 196 198 199 201 205 208 213 222 230 238 247 256 264 274 283 290 297 304 308 312 317 320 322 325 327 329 331 332 334 334 335 336 337 336 336 336 335 335 335
341 339 347 26 84 132 174 227 248 247 240 260 285 286 286 315 338 329 332 344 352 355 360 359 348 342 351 351 344 348 2 12 9 2 353 223 205 194 187 185 181 178 179 182 186 190 195 197 197 201 204 208 217 228 238 246 256 264 271 279 287 292 297 303 307 311 315 318 320 322 325 327 328 330 331 332 332 333 333 333 333 334 334 334 334
356 358 9 61 108 115 121 266 254 219 185 203 269 289 297 320 336 333 335 346 359 4 5 2 353 346 351 350 343 348 4 15 11 5 24 147 169 171 173 175 174 173 176 181 184 188 192 195 198 203 208 213 223 235 245 255 264 272 278 284 289 294 298 303 307 311 314 317 319 321 323 325 327 328 328 329 330 330 331 331 331 331 332 332 331
10 11 5 65 131 134 182 266 260 148 162 209 265 305 313 310 326 334 338 345 351 346 341 347 350 347 344 345 347 354 6 16 13 10 68 130 143 149 154 159 163 166 170 176 180 184 190 196 202 209 217 226 236 247 257 265 273 279 284 289 292 297 301 304 308 312 314 316 318 321 322 324 325 327 327 328 329 329 329 329 329 329 330 329 329
24 20 8 29 122 132 175 274 246 127 140 248 347 36 17 315 319 328 333 331 324 313 307 325 345 344 337 343 354 360 8 18 18 25 103 126 130 134 139 144 150 156 162 168 174 181 190 200 210 221 232 244 254 264 272 280 284 287 290 294 297 300 304 308 310 312 315 316 318 320 322 324 325 327 327 328 329 329 328 328 328 327 327 327 327
45 46 39 31 27 12 313 298 253 155 90 44 44 89 306 315 321 327 328 321 312 305 303 313 329 332 333 346 358 2 8 21 28 53 120 128 126 126 129 133 139 147 153 158 166 174 187 207 228 244 258 268 278 286 289 290 292 293 296 300 303 305 307 310 312 313 315 317 319 321 323 325 326 327 328 328 328 328 327 327 327 326 326 326 326
Height
2886 2884 2882 2880 2878 2877 2875 2874 2873 2871 2869 2867 2865 2864 2863 2863 2862 2862 2863 2864 2863 2863 2863 2863 2862 2862 2862 2862 2862 2861 2861 2861 2862 2861 2861 2861 2861 2861 2861 2862 2863 2865 2866 2867 2867 2868 2869 2869 2870 2871 2871 2871 2872 2872 2873 2873 2873 2873 2873 2872 2872 2871 2870 2868 2866 2865 2866 2867 2865 2864 2864 2862 2860 2859 2857 2853 2849 2846 2842 2839 2834 2830 2827 2824 2822
2880 2878 2876 2874 2872 2870 2869 2868 2867 2865 2863 2862 2860 2859 2857 2856 2855 2854 2854 2855 2855 2855 2856 2856 2856 2856 2856 2857 2857 2856 2856 2856 2856 2856 2856 2856 2856 2856 2856 2856 2857 2859 2860 2860 2861 2862 2863 2863 2864 2865 2865 2865 2866 2866 2867 2867 2867 2867 2868 2867 2866 2865 2864 2863 2860 2859 2859 2860 2860 2859 2858 2857 2855 2853 2850 2846 2842 2839 2837 2834 2830 2826 2822 2819 2817
2875 2873 2870 2868 2866 2864 2862 2861 2860 2858 2857 2856 2854 2853 2851 2849 2849 2847 2846 2846 2846 2847 2847 2848 2849 2849 2850 2850 2851 2851 2851 2850 2850 2850 2851 2851 2851 2851 2851 2851 2852 2853 2853 2854 2856 2857 2857 2858 2858 2859 2859 2859 2860 2861 2861 2861 2862 2862 2862 2861 2861 2860 2859 2857 2855 2854 2853 2853 2854 2853 2852 2851 2849 2847 2844 2840 2835 2832 2830 2828 2825 2821 2818 2814 2812
2869 2867 2864 2863 2861 2860 2858 2856 2854 2852 2850 2848 2847 2846 2844 2843 2842 2840 2839 2838 2838 2838 2838 2839 2840 2842 2843 2844 2844 2845 2845 2845 2845 2845 2845 2845 2846 2846 2846 2846 2847 2848 2848 2849 2850 2851 2851 2852 2853 2853 2854 2854 2855 2855 2856 2856 2857 2857 2857 2856 2856 2855 2854 2852 2851 2849 2848 2847 2848 2847 2846 2845 2843 2841 2838 2834 2829 2826 2824 2822 2819 2816 2813 2809 2806
2863 2861 2859 2856 2855 2853 2851 2849 2847 2845 2843 2841 2840 2838 2837 2835 2834 2833 2832 2831 2830 2830 2830 2830 2831 2834 2836 2837 2837 2838 2838 2838 2839 2839 2839 2840 2840 2840 2841 2841 2841 2842 2843 2844 2845 2845 2845 2846 2847 2848 2848 2849 2849 2850 2851 2851 2851 2851 2851 2851 2851 2850 2848 2847 2846 2845 2843 2842 2841 2841 2840 2839 2837 2835 2833 2828 2824 2821 2819 2816 2812 2809 2807 2804 2801
2858 2855 2853 2851 2848 2847 2845 2843 2841 2838 2836 2834 2832 2831 2829 2828 2827 2826 2825 2823 2823 2822 2822 2822 2823 2825 2828 2829 2830 2830 2831 2831 2832 2833 2833 2834 2835 2835 2836 2836 2836 2837 2838 2839 2840 2840 2840 2841 2842 2842 2843 2844 2845 2845 2845 2845 2845 2845 2845 2845 2845 2844 2843 2842 2841 2840 2838 2837 2836 2835 2834 2832 2831 2830 2827 2822 2818 2815 2812 2810 2807 2804 2801 2798 2795
2853 2850 2848 2846 2844 2842 2840 2838 2835 2833 2830 2827 2825 2824 2822 2821 2820 2819 2818 2816 2816 2815 2815 2815 2816 2817 2819 2821 2822 2823 2824 2825 2826 2827 2827 2828 2829 2830 2831 2832 2832 2832 2833 2834 2834 2835 2836 2836 2837 2838 2839 2839 2840 2840 2840 2839 2839 2839 2840 2840 2839 2838 2837 2837 2836 2835 2833 2832 2830 2829 2828 2826 2825 2823 2821 2816 2812 2810 2806 2802 2800 2798 2794 2790 2788
2848 2845 2843 2841 2839 2837 2834 2832 2829 2827 2824 2822 2820 2818 2817 2815 2814 2812 2811 2810 2809 2809 2809 2809 2809 2810 2811 2813 2815 2816 2817 2818 2819 2820 2822 2822 2823 2824 2825 2826 2827 2827 2828 2828 2829 2830 2830 2831 2832 2833 2834 2834 2835 2834 2834 2834 2834 2834 2835 2835 2834 2833 2832 2832 2831 2830 2828 2826 2825 2824 2822 2821 2820 2818 2814 2811 2807 2805 2801 2796 2792 2791 2788 2784 2782
2843 2840 2838 2836 2834 2832 2829 2826 2824 2821 2819 2817 2815 2813 2811 2810 2808 2806 2806 2805 2803 2803 2803 2803 2803 2803 2804 2806 2807 2809 2809 2811 2812 2814 2815 2816 2817 2818 2819 2820 2820 2821 2822 2823 2824 2824 2825 2826 2827 2828 2829 2829 2829 2829 2828 2828 2829 2830 2830 2830 2829 2828 2827 2827 2825 2824 2823 2821 2820 2819 2817 2816 2815 2812 2808 2805 2802 2799 2796 2791 2787 2785 2781 2778 2777
2839 2837 2834 2832 2830 2827 2824 2821 2818 2816 2814 2811 2809 2807 2806 2804 2802 2801 2800 2799 2798 2797 2797 2797 2798 2797 2798 2799 2800 2801 2803 2804 2805 2807 2808 2810 2811 2812 2812 2813 2814 2815 2816 2817 2818 2819 2820 2821 2822 2823 2823 2823 2823 2823 2824 2824 2824 2825 2825 2825 2824 2823 2822 2821 2820 2819 2817 2816 2815 2814 2811 2810 2809 2806 2802 2800 2796 2793 2790 2786 2782 2780 2776 2772 2771
2836 2833 2830 2827 2825 2822 2819 2816 2813 2811 2808 2806 2804 2802 2801 2799 2797 2795 2795 2793 2792 2791 2791 2792 2792 2792 2792 2792 2793 2795 2796 2798 2799 2800 2801 2803 2804 2805 2806 2806 2807 2808 2809 2811 2813 2814 2815 2816 2817 2817 2817 2818 2818 2819 2819 2819 2820 2820 2820 2820 2819 2818 2817 2816 2815 2814 2812 2811 2810 2808 2806 2804 2803 2800 2797 2793 2790 2787 2785 2781 2777 2774 2770 2766 2764
2831 2828 2826 2823 2821 2818 2815 2812 2809 2806 2804 2802 2800 2798 2796 2794 2792 2790 2789 2788 2787 2786 2786 2786 2786 2786 2786 2787 2787 2788 2790 2792 2792 2793 2794 2796 2798 2799 2799 2800 2800 2801 2803 2805 2807 2808 2809 2811 2812 2812 2813 2813 2813 2814 2814 2815 2815 2815 2815 2815 2814 2814 2813 2812 2810 2809 2807 2806 2804 2803 2801 2798 2796 2795 2792 2788 2785 2782 2780 2777 2773 2769 2766 2762 2758
2826 2824 2822 2819 2816 2814 2810 2807 2804 2802 2800 2798 2796 2795 2792 2790 2788 2786 2784 2783 2782 2781 2781 2780 2780 2781 2780 2781 2781 2782 2784 2786 2786 2787 2788 2789 2791 2792 2793 2793 2794 2795 2797 2799 2801 2803 2804 2806 2807 2807 2808 2808 2809 2809 2809 2810 2810 2811 2811 2810 2810 2809 2808 2807 2806 2803 2802 2800 2798 2798 2796 2793 2790 2789 2787 2783 2779 2777 2775 2772 2769 2765 2761 2758 2754
2822 2819 2817 2815 2812 2809 2806 2803 2800 2798 2796 2794 2792 2791 2789 2786 2784 2781 2780 2778 2777 2776 2775 2775 2775 2775 2775 2775 2776 2776 2778 2780 2781 2782 2783 2784 2785 2786 2787 2788 2789 2790 2792 2793 2795 2797 2799 2801 2802 2803 2804 2803 2804 2805 2805 2805 2806 2806 2806 2806 2806 2805 2805 2804 2802 2799 2798 2795 2794 2793 2791 2788 2785 2784 2783 2779 2775 2772 2769 2767 2765 2761 2757 2753 2750
2817 2814 2812 2810 2807 2804 2801 2799 2796 2794 2792 2790 2788 2786 2784 2782 2779 2777 2775 2774 2773 2771 2770 2769 2769 2769 2769 2770 2770 2771 2773 2774 2775 2777 2778 2778 2779 2780 2781 2783 2784 2785 2786 2788 2790 2792 2794 2796 2797 2799 2799 2799 2800 2800 2801 2802 2802 2802 2802 2802 2802 2802 2801 2799 2797 2795 2794 2792 2790 2788 2786 2784 2781 2779 2778 2775 2771 2768 2765 2762 2760 2755 2750 2747 2745
2812 2810 2807 2805 2803 2800 2797 2794 2792 2790 2787 2786 2784 2782 2780 2778 2776 2773 2771 2769 2768 2766 2765 2765 2765 2764 2764 2765 2766 2767 2768 2769 2771 2772 2773 2773 2774 2774 2775 2778 2779 2780 2781 2783 2785 2787 2789 2791 2793 2794 2795 2795 2796 2796 2797 2798 2798 2798 2799 2798 2798 2798 2797 2795 2793 2792 2790 2788 2786 2784 2782 2780 2778 2776 2773 2770 2766 2763 2760 2758 2756 2750 2745 2742 2740
2807 2804 2802 2800 2798 2795 2793 2790 2788 2786 2784 2782 2780 2778 2776 2774 2772 2770 2767 2765 2763 2762 2761 2761 2761 2760 2760 2760 2761 2762 2764 2765 2766 2767 2768 2769 2770 2770 2770 2772 2774 2775 2776 2778 2781 2783 2785 2787 2789 2790 2790 2791 2791 2792 2793 2794 2794 2795 2795 2795 2795 2794 2793 2791 2789 2789 2787 2785 2783 2781 2779 2777 2775 2773 2770 2766 2763 2759 2756 2754 2751 2746 2742 2738 2735
2800 2798 2797 2795 2792 2790 2789 2786 2784 2782 2780 2779 2777 2775 2773 2771 2768 2766 2764 2762 2760 2758 2757 2756 2756 2756 2755 2755 2756 2758 2759 2761 2762 2763 2764 2765 2765 2765 2765 2767 2769 2771 2773 2775 2777 2779 2781 2783 2784 2785 2786 2787 2787 2788 2789 2790 2791 2791 2791 2791 2791 2790 2789 2788 2787 2786 2784 2782 2780 2778 2776 2774 2772 2769 2766 2763 2759 2756 2751 2749 2747 2743 2739 2736 2732
2793 2793 2791 2789 2787 2786 2784 2782 2780 2779 2777 2775 2774 2772 2770 2768 2765 2763 2761 2759 2757 2755 2753 2752 2751 2751 2751 2751 2752 2753 2755 2756 2758 2759 2761 2761 2761 2760 2761 2763 2765 2767 2769 2771 2773 2775 2777 2779 2780 2781 2782 2783 2784 2785 2786 2786 2787 2787 2788 2788 2787 2787 2786 2785 2785 2783 2782 2780 2778 2776 2774 2771 2768 2765 2762 2759 2756 2752 2749 2746 2743 2739 2736 2734 2730
2787 2787 2786 2783 2782 2781 2780 2778 2776 2775 2773 2771 2771 2769 2767 2765 2762 2760 2758 2755 2753 2751 2749 2748 2747 2747 2747 2747 2748 2749 2750 2752 2754 2756 2757 2757 2757 2757 2758 2759 2762 2764 2766 2768 2769 2771 2774 2775 2777 2778 2779 2779 2780 2781 2782 2782 2783 2784 2784 2784 2784 2783 2783 2782 2781 2780 2779 2777 2775 2773 2771 2768 2765 2762 2759 2756 2753 2750 2747 2743 2740 2737 2733 2730 2728
2781 2781 2779 2778 2778 2777 2776 2774 2772 2771 2769 2768 2767 2765 2763 2761 2759 2757 2754 2751 2749 2747 2746 2745 2744 2743 2743 2743 2744 2745 2747 2749 2751 2752 2753 2753 2753 2753 2755 2757 2759 2762 2764 2765 2766 2768 2771 2772 2774 2775 2776 2777 2777 2778 2778 2779 2780 2780 2780 2780 2780 2780 2780 2779 2778 2777 2775 2774 2772 2770 2768 2766 2762 2759 2757 2754 2751 2747 2744 2741 2738 2734 2731 2728 2724
2777 2776 2775 2774 2774 2772 2771 2770 2768 2767 2766 2765 2763 2762 2760 2758 2756 2753 2751 2748 2746 2744 2743 2741 2741 2741 2741 2741 2741 2742 2744 2746 2748 2749 2750 2750 2750 2751 2753 2755 2758 2760 2761 2763 2764 2766 2768 2769 2771 2772 2773 2774 2774 2775 2775 2776 2776 2777 2777 2777 2777 2777 2777 2776 2775 2773 2772 2771 2769 2767 2765 2763 2760 2757 2755 2752 2748 2745 2742 2739 2735 2732 2729 2726 2722
2773 2772 2771 2771 2770 2768 2767 2766 2765 2763 2762 2761 2760 2758 2756 2754 2752 2750 2747 2744 2742 2741 2739 2738 2738 2738 2738 2737 2738 2740 2742 2744 2746 2747 2748 2748 2749 2750 2752 2753 2755 2758 2760 2761 2762 2764 2765 2766 2768 2769 2771 2771 2771 2772 2772 2773 2773 2774 2774 2774 2774 2774 2773 2772 2771 2770 2769 2768 2767 2764 2762 2760 2758 2755 2752 2749 2746 2743 2740 2736 2733 2729 2727 2724 2720
2770 2768 2768 2767 2766 2765 2764 2763 2761 2760 2759 2758 2757 2755 2753 2750 2748 2746 2744 2740 2738 2737 2736 2735 2735 2735 2735 2735 2737 2738 2740 2742 2743 2744 2746 2747 2748 2749 2750 2752 2754 2756 2757 2758 2760 2761 2762 2763 2765 2766 2767 2768 2769 2769 2770 2770 2770 2771 2771 2771 2771 2770 2770 2769 2768 2768 2767 2766 2764 2762 2760 2758 2756 2753 2750 2747 2744 2741 2737 2733 2730 2727 2724 2722 2719
2765 2764 2764 2763 2762 2761 2761 2760 2759 2758 2756 2755 2753 2751 2749 2747 2745 2742 2740 2737 2735 2735 2734 2733 2733 2733 2733 2734 2736 2737 2738 2740 2741 2742 2744 2745 2746 2748 2749 2750 2752 2753 2754 2755 2757 2758 2759 2761 2762 2763 2765 2766 2766 2767 2767 2767 2768 2768 2768 2768 2768 2767 2767 2766 2766 2765 2764 2763 2761 2759 2757 2755 2753 2750 2747 2744 2741 2738 2735 2731 2728 2726 2723 2720 2717
2761 2760 2760 2760 2759 2758 2758 2757 2756 2755 2754 2752 2751 2748 2746 2744 2742 2739 2737 2734 2733 2733 2732 2731 2731 2731 2731 2733 2734 2736 2737 2738 2739 2741 2742 2744 2745 2747 2747 2748 2749 2750 2752 2752 2753 2754 2756 2758 2759 2761 2762 2763 2763 2764 2765 2765 2765 2766 2766 2766 2765 2765 2765 2764 2764 2763 2762 2761 2759 2757 2755 2753 2750 2747 2744 2741 2738 2735 2732 2729 2727 2724 2721 2719 2715
2758 2758 2758 2757 2757 2756 2755 2755 2754 2753 2751 2750 2748 2747 2744 2742 2739 2736 2734 2733 2732 2731 2730 2730 2729 2729 2730 2731 2732 2734 2735 2737 2738 2739 2741 2742 2744 2745 2745 2746 2746 2748 2748 2749 2750 2751 2754 2755 2757 2758 2759 2760 2761 2762 2762 2763 2763 2764 2764 2763 2763 2763 2762 2762 2762 2761 2760 2758 2756 2755 2753 2750 2747 2744 2741 2739 2736 2733 2730 2728 2725 2722 2719 2717 2713
2756 2756 2756 2755 2755 2754 2753 2753 2752 2750 2749 2748 2746 2744 2742 2740 2737 2735 2733 2731 2730 2730 2729 2728 2728 2728 2729 2730 2731 2732 2734 2735 2736 2737 2739 2741 2742 2743 2744 2744 2745 2745 2746 2746 2747 2749 2751 2753 2755 2756 2756 2757 2758 2759 2760 2761 2761 2761 2762 2761 2761 2761 2760 2760 2760 2759 2757 2756 2754 2753 2750 2748 2745 2742 2739 2737 2734 2731 2729 2726 2723 2720 2717 2714 2711
2754 2754 2754 2754 2753 2752 2751 2751 2750 2748 2747 2745 2744 2742 2741 2738 2736 2734 2732 2731 2729 2729 2728 2728 2727 2728 2728 2729 2730 2731 2732 2733 2733 2734 2736 2738 2740 2741 2742 2743 2743 2743 2743 2743 2745 2747 2748 2750 2752 2753 2754 2755 2756 2757 2758 2759 2759 2759 2759 2759 2759 2759 2759 2758 2758 2756 2755 2754 2752 2750 2748 2745 2743 2740 2738 2735 2732 2730 2727 2725 2722 2719 2715 2712 2708
2752 2752 2752 2752 2751 2750 2749 2748 2748 2746 2744 2743 2742 2740 2739 2737 2735 2733 2731 2730 2729 2728 2727 2727 2727 2727 2727 2728 2728 2729 2730 2731 2732 2733 2734 2736 2737 2739 2740 2740 2741 2741 2740 2741 2742 2743 2745 2747 2749 2751 2752 2753 2754 2755 2756 2756 2757 2757 2757 2757 2757 2757 2757 2756 2755 2754 2753 2752 2750 2748 2746 2744 2742 2739 2736 2734 2731 2729 2726 2723 2720 2717 2714 2711 2707
2750 2750 2750 2750 2749 2748 2747 2746 2745 2744 2742 2741 2740 2738 2737 2736 2735 2733 2731 2730 2729 2728 2727 2727 2726 2726 2726 2726 2726 2727 2728 2729 2730 2732 2733 2734 2735 2736 2737 2738 2738 2738 2737 2738 2739 2741 2743 2745 2747 2749 2750 2751 2752 2753 2754 2754 2755 2755 2755 2755 2755 2755 2755 2754 2753 2752 2751 2750 2748 2746 2744 2742 2740 2738 2735 2733 2731 2728 2725 2722 2719 2716 2713 2709 2706
2748 2749 2749 2748 2747 2747 2745 2744 2743 2742 2740 2739 2738 2737 2735 2734 2734 2733 2731 2729 2729 2728 2727 2726 2725 2725 2724 2724 2724 2725 2726 2727 2728 2729 2731 2732 2733 2734 2734 2735 2735 2735 2735 2736 2737 2739 2741 2744 2746 2747 2748 2749 2750 2751 2751 2752 2753 2753 2753 2753 2753 2753 2753 2752 2751 2750 2749 2748 2746 2745 2743 2741 2739 2736 2734 2732 2730 2728 2725 2722 2719 2716 2712 2709 2705
2747 2747 2747 2746 2746 2745 2744 2743 2741 2740 2739 2738 2737 2735 2733 2732 2731 2731 2730 2729 2728 2727 2726 2725 2723 2722 2721 2720 2720 2721 2722 2724 2725 2726 2728 2729 2730 2731 2732 2732 2733 2733 2733 2734 2736 2738 2740 2742 2744 2745 2746 2747 2748 2749 2750 2750 2751 2751 2752 2752 2752 2752 2751 2750 2750 2749 2748 2746 2745 2743 2742 2739 2737 2735 2733 2731 2729 2727 2725 2722 2719 2716 2712 2709 2706
2745 2745 2745 2745 2745 2744 2743 2742 2740 2739 2737 2737 2736 2734 2732 2731 2729 2729 2728 2728 2726 2725 2724 2722 2720 2718 2716 2717 2717 2717 2718 2720 2722 2723 2725 2727 2728 2729 2730 2730 2731 2731 2732 2733 2734 2737 2739 2741 2742 2744 2745 2746 2746 2747 2748 2749 2749 2750 2750 2750 2750 2750 2749 2749 2748 2747 2746 2745 2744 2742 2740 2738 2736 2734 2732 2731 2729 2726 2724 2722 2719 2716 2713 2710 2706
2744 2743 2744 2743 2743 2742 2741 2740 2739 2738 2736 2735 2734 2733 2731 2730 2729 2728 2727 2726 2726 2725 2722 2720 2717 2714 2713 2713 2714 2715 2716 2718 2720 2721 2723 2725 2726 2727 2728 2728 2729 2730 2730 2731 2733 2735 2737 2739 2741 2742 2743 2744 2745 2745 2746 2747 2748 2748 2749 2749 2749 2749 2748 2747 2747 2746 2745 2744 2742 2741 2739 2737 2735 2733 2732 2730 2728 2726 2724 2721 2719 2716 2713 2710 2707
2742 2741 2742 2742 2741 2741 2740 2739 2738 2737 2735 2734 2733 2732 2730 2729 2728 2727 2726 2726 2725 2724 2722 2718 2715 2712 2710 2711 2713 2714 2715 2717 2718 2720 2721 2723 2724 2725 2726 2727 2727 2728 2729 2730 2732 2733 2735 2737 2739 2740 2741 2742 2743 2744 2745 2746 2746 2747 2747 2748 2747 2747 2746 2746 2745 2745 2744 2742 2741 2740 2738 2736 2734 2732 2731 2729 2727 2725 2723 2720 2718 2715 2713 2710 2708
2739 2739 2739 2740 2740 2740 2739 2738 2737 2736 2735 2733 2732 2731 2730 2729 2728 2727 2726 2725 2724 2723 2721 2718 2715 2712 2710 2711 2712 2714 2715 2716 2718 2719 2720 2721 2722 2723 2724 2725 2726 2726 2727 2729 2730 2732 2734 2736 2737 2739 2740 2741 2742 2743 2744 2745 2745 2746 2746 2746 2746 2745 2745 2745 2744 2743 2742 2741 2740 2739 2737 2736 2734 2732 2730 2728 2726 2724 2722 2720 2717 2715 2712 2710 2708
2736 2736 2737 2738 2738 2738 2737 2737 2736 2735 2734 2732 2731 2731 2730 2729 2728 2727 2726 2725 2724 2722 2721 2719 2716 2714 2712 2713 2713 2714 2715 2716 2717 2718 2718 2719 2720 2721 2723 2723 2724 2724 2726 2727 2729 2731 2733 2734 2736 2738 2739 2740 2741 2742 2743 2744 2744 2745 2745 2745 2745 2744 2744 2743 2743 2742 2741 2740 2739 2738 2737 2735 2733 2731 2729 2728 2726 2724 2722 2719 2717 2715 2713 2710 2708
2734 2734 2734 2735 2736 2736 2736 2736 2735 2734 2733 2731 2730 2730 2729 2728 2728 2727 2726 2725 2724 2722 2721 2720 2718 2716 2715 2714 2714 2715 2715 2716 2716 2717 2717 2718 2719 2720 2720 2721 2722 2723 2724 2726 2728 2729 2731 2733 2735 2737 2738 2739 2740 2741 2742 2743 2744 2744 2744 2744 2743 2743 2743 2742 2741 2741 2740 2739 2738 2737 2736 2734 2732 2731 2729 2727 2725 2723 2721 2719 2717 2715 2712 2710 2708
2732 2732 2732 2733 2733 2734 2734 2734 2734 2733 2732 2730 2729 2729 2728 2728 2727 2727 2726 2725 2724 2723 2722 2721 2720 2719 2717 2716 2715 2715 2715 2715 2715 2715 2716 2716 2717 2718 2719 2720 2721 2722 2723 2725 2726 2728 2730 2732 2734 2736 2737 2738 2739 2741 2741 2742 2743 2743 2743 2742 2742 2742 2741 2741 2740 2739 2738 2738 2737 2736 2735 2733 2731 2730 2728 2726 2725 2723 2721 2719 2716 2714 2712 2710 2708
2730 2730 2730 2731 2731 2732 2732 2732 2732 2732 2731 2730 2729 2728 2727 2727 2727 2726 2726 2725 2724 2723 2723 2722 2721 2720 2719 2718 2716 2715 2715 2714 2714 2714 2714 2715 2716 2717 2718 2719 2720 2721 2722 2724 2726 2728 2730 2732 2733 2735 2736 2737 2739 2740 2741 2741 2742 2742 2742 2741 2741 2741 2741 2740 2739 2738 2738 2737 2736 2735 2734 2732 2731 2729 2727 2726 2724 2722 2720 2718 2716 2714 2711 2709 2708
2727 2728 2728 2729 2729 2730 2730 2730 2730 2730 2730 2729 2728 2727 2727 2726 2726 2726 2725 2725 2724 2723 2723 2722 2722 2721 2720 2719 2717 2716 2715 2714 2714 2713 2713 2713 2714 2715 2716 2717 2718 2720 2721 2723 2725 2727 2729 2731 2733 2734 2736 2737 2738 2739 2740 2740 2741 2741 2741 2740 2740 2740 2740 2739 2738 2738 2737 2736 2735 2734 2733 2731 2729 2728 2727 2725 2723 2722 2720 2718 2715 2713 2711 2709 2707
2725 2726 2726 2727 2727 2728 2728 2728 2729 2728 2728 2728 2727 2726 2726 2725 2725 2725 2725 2724 2724 2723 2723 2722 2722 2721 2720 2719 2717 2716 2715 2714 2713 2713 2713 2713 2713 2714 2714 2715 2717 2719 2721 2723 2725 2727 2729 2731 2732 2733 2735 2736 2737 2738 2739 2739 2740 2740 2740 2740 2739 2739 2739 2738 2738 2737 2736 2735 2734 2733 2731 2730 2728 2727 2726 2724 2722 2721 2719 2717 2715 2713 2711 2709 2707
2724 2724 2725 2725 2726 2726 2726 2727 2727 2727 2727 2727 2726 2726 2725 2725 2725 2725 2725 2724 2724 2723 2723 2722 2721 2721 2720 2719 2717 2716 2715 2714 2713 2713 2712 2712 2713 2713 2713 2715 2716 2719 2721 2723 2726 2728 2729 2731 2732 2733 2734 2735 2736 2737 2738 2738 2739 2739 2739 2739 2739 2738 2738 2737 2737 2736 2735 2734 2733 2732 2730 2729 2727 2726 2724 2723 2721 2719 2718 2716 2714 2712 2710 2708 2706
2723 2724 2724 2724 2724 2725 2725 2725 2726 2726 2727 2726 2726 2725 2725 2725 2725 2725 2725 2724 2724 2723 2722 2721 2721 2720 2720 2718 2717 2716 2715 2714 2713 2713 2712 2712 2712 2712 2713 2714 2716 2719 2721 2723 2725 2727 2729 2730 2732 2733 2734 2735 2736 2737 2737 2738 2738 2738 2738 2738 2738 2738 2737 2737 2736 2735 2734 2733 2732 2731 2729 2728 2726 2724 2723 2721 2719 2718 2716 2714 2713 2711 2709 2707 2705
2723 2723 2723 2723 2723 2724 2724 2724 2725 2726 2726 2726 2726 2725 2725 2725 2725 2725 2724 2724 2723 2723 2722 2721 2720 2720 2719 2718 2717 2716 2715 2713 2712 2712 2712 2711 2712 2712 2713 2715 2717 2719 2721 2723 2725 2727 2729 2731 2732 2733 2734 2735 2735 2736 2736 2737 2737 2737 2737 2737 2737 2737 2736 2736 2735 2734 2733 2732 2731 2730 2728 2727 2725 2723 2721 2719 2717 2716 2714 2712 2711 2709 2707 2706 2704
2723 2723 2723 2723 2723 2723 2724 2724 2725 2725 2726 2726 2726 2725 2725 2725 2725 2725 2724 2724 2724 2723 2722 2721 2720 2720 2719 2718 2717 2716 2714 2713 2712 2711 2711 2711 2711 2712 2713 2715 2717 2719 2721 2723 2726 2728 2729 2731 2732 2733 2733 2734 2735 2735 2736 2736 2737 2737 2737 2737 2737 2736 2736 2735 2734 2733 2732 2731 2730 2728 2727 2725 2724 2722 2720 2718 2716 2714 2712 2710 2708 2707 2705 2703 2702
2723 2723 2723 2723 2723 2724 2724 2725 2725 2725 2726 2726 2726 2726 2726 2726 2726 2725 2724 2724 2724 2723 2723 2722 2721 2719 2719 2718 2717 2716 2714 2712 2711 2710 2710 2710 2711 2712 2714 2716 2718 2720 2722 2724 2726 2728 2730 2731 2731 2732 2733 2733 2734 2734 2735 2736 2736 2736 2736 2736 2736 2735 2734 2734 2733 2732 2730 2729 2728 2727 2725 2724 2722 2720 2718 2716 2714 2712 2710 2708 2706 2704 2703 2701 2700
2723 2723 2723 2724 2724 2724 2725 2725 2725 2725 2725 2726 2726 2726 2726 2726 2726 2725 2725 2724 2724 2723 2723 2722 2721 2720 2719 2718 2717 2716 2714 2712 2711 2710 2710 2711 2712 2713 2715 2717 2719 2721 2724 2726 2727 2729 2730 2730 2731 2732 2733 2733 2734 2734 2735 2735 2735 2736 2735 2735 2734 2734 2733 2732 2731 2730 2729 2728 2726 2725 2723 2721 2720 2718 2716 2714 2712 2710 2708 2706 2704 2702 2701 2699 2697
2724 2724 2724 2724 2725 2725 2725 2726 2726 2726 2726 2726 2726 2726 2726 2726 2726 2725 2725 2724 2724 2723 2722 2721 2721 2720 2719 2718 2717 2716 2714 2713 2712 2711 2711 2712 2713 2715 2717 2719 2721 2723 2725 2727 2728 2729 2730 2731 2731 2732 2733 2733 2734 2734 2735 2735 2735 2735 2734 2734 2733 2733 2732 2731 2730 2728 2727 2726 2724 2723 2721 2719 2717 2715 2714 2712 2710 2708 2706 2704 2702 2700 2698 2696 2694
2725 2725 2725 2726 2726 2726 2726 2726 2726 2726 2726 2727 2726 2726 2726 2726 2726 2725 2724 2724 2723 2722 2721 2720 2720 2720 2719 2718 2717 2716 2715 2714 2713 2713 2713 2714 2715 2717 2719 2721 2723 2725 2726 2728 2729 2729 2730 2731 2732 2732 2733 2733 2734 2734 2734 2734 2734 2734 2733 2733 2732 2731 2730 2729 2728 2727 2725 2724 2722 2721 2719 2717 2715 2713 2711 2709 2707 2705 2703 2701 2699 2697 2695 2693 2691